Location: Unspecified
(0.0000°N, 0.0000°E)
Time: 18:05:28
(UTC+00:00)

Vanguard 1 - Pass Details

Date: 19 April 2026
Orbit: 654 x 3817 km, 34.2° (Epoch: 18 May)

Event Time Altitude Azimuth Distance (km) Brightness Sun altitude
Rises 20:50:47 0° 255° (WSW) 5,999 14.7 -41.9°
Reaches altitude 10° 20:54:25 10° 261° (W) 5,355 14.3 -42.8°
Maximum altitude 21:11:00 47° 329° (NNW) 4,254 13.2 -46.7°
Drops below altitude 10° 21:33:04 10° 38° (NE) 6,829 14.2 -52.0°
Sets 21:38:40 0° 44° (NE) 7,682 14.5 -53.3°
